Regional Weather Roundup
Issued by NWS

Home | Current Version | Previous Version | Text Only | Print | Product List | Glossary Off
Versions: 1 2 3 4 5 6 7 8 9 10 11 12 13 14 15 16 17 18 19 20 21 22 23 24 25 26 27 28 29 30 31 32 33 34 35 36 37 38 39 40 41 42 43 44 45 46 47 48 49 50

000
ASUS45 KBOU 261007
RWRCO

WEATHER ROUNDUP FOR COLORADO
NATIONAL WEATHER SERVICE DENVER/BOULDER CO
400 AM MDT MON JUN 26 2017

NOTE: "FAIR" INDICATES FEW OR NO CLOUDS BELOW 12000 FEET WITH NO
SIGNIFICANT WEATHER AND/OR OBSTRUCTIONS TO VISIBILITY.

COZ001>005-013-030-031-261100-
...NORTHWEST COLORADO...

CITY           SKY/WX    TMP DP  RH WIND       PRES   REMARKS
CRAIG          FAIR      45  36  70 CALM      30.31S
HAYDEN         FAIR      48  30  49 E13       30.33S
MEEKER         FAIR      48  33  56 E6        30.32R
RABBIT EARS PA FAIR      52  27  37 W6        30.59S
STEAMBOAT SPGS FAIR      43  33  67 CALM      30.36S
WALDEN         FAIR      36  30  80 SE8       30.46R
$$

COZ006>008-011-261100-
...WEST CENTRAL VALLEYS...

CITY           SKY/WX    TMP DP  RH WIND       PRES   REMARKS
GRAND JUNCTION FAIR      68  32  26 S6        30.14S
MONTROSE       FAIR      56  32  40 S6        30.25S
EAGLE          FAIR      47  30  51 SE5       30.39R
RIFLE          FAIR      56  31  38 S5        30.26R
DELTA          FAIR      61  31  32 CALM      30.21R
NUCLA          FAIR      61  27  27 E10       30.26S
$$

COZ017>023-064>068-261100-
...SOUTHWEST COLORADO...

CITY           SKY/WX    TMP DP  RH WIND       PRES   REMARKS
DURANGO        FAIR      54  38  54 CALM      30.32R
CORTEZ         FAIR      48  33  56 E7        30.24R
PAGOSA SPRINGS FAIR      51  38  60 CALM      30.41R
TELLURIDE      FAIR      53  25  34 SE3       30.49S
WOLF CREEK PAS FAIR      45  36  70 SW7       30.72S
$$

COZ009-010-012-014-032>034-037-058>063-261100-
...CENTRAL COLORADO...

CITY           SKY/WX    TMP DP  RH WIND       PRES   REMARKS
ASPEN          FAIR      48  32  53 SW7       30.40S
BUENA VISTA    CLOUDY    57  51  79 CALM      30.46R
COPPER MTN     FAIR      46  27  46 CALM      30.68F
BERTHOUD PASS  FAIR      37  27  65 NW10      30.71S
COTTONWOOD PAS MOCLDY    54  46  76 CALM      30.57R
GUNNISON       FAIR      47  34  60 NE5       30.42R
KREMMLING      NOT AVBL
LEADVILLE      CLOUDY    47  39  74 CALM      30.54S
SALIDA         FAIR      59  54  82 S3        30.50S
SUNLIGHT       FAIR      46  23  39 NE3       30.63S
WILKERSON PASS FOG       45  43  93 CALM      30.67S VSB 1/2
$$

COZ069>075-261100-
...SAN LUIS VALLEY/SANGRE DE CRISTO MOUNTAINS...

CITY           SKY/WX    TMP DP  RH WIND       PRES   REMARKS
ALAMOSA        FAIR      50  46  86 S8        30.39R
DEL NORTE      FAIR      47  37  66 W12       30.44R
LA VETA PASS   FOG       46  45  93 CALM      30.68F VSB 3/4
SAGUACHE       FAIR      50  41  71 N3        30.44R
$$

COZ035-036-038>040-261100-
...NORTHERN COLORADO FRONT RANGE...

CITY           SKY/WX    TMP DP  RH WIND       PRES   REMARKS
DENVER INTL AP FAIR      57  53  86 S12       30.28F
DMNS CITY PARK   N/A     58  53  83 SE8       30.27F
AURORA         PTCLDY    58  55  90 S12       30.29F
FRONT RANGE AP FAIR      59  54  82 S9        30.29F
ERIE MUNI ARPT FAIR      53  51  92 CALM      30.28S
BOULDER MUN AP FAIR      54  52  94 CALM      30.27F
CENTENNIAL     FAIR      57  54  89 S10       30.30F
BROOMFIELD     FAIR      55  52  88 CALM      30.29F
FORT COLLINS   FAIR      52  51  97 N6        30.27F
LONGMONT       FAIR      52  48  85 CALM      30.29S
$$

COZ041-046-047-076>085-087-088-261100-
...PIKES PEAK/PALMER DIVIDE AND SOUTHERN FOOTHILLS...

CITY           SKY/WX    TMP DP  RH WIND       PRES   REMARKS
COLO. SPRINGS  LGT RAIN  59  59 100 S8        30.38F FOG
A. F. ACADEMY  CLOUDY    58  58 100 S8        30.38F
SCHRIEVER AFB  LGT RAIN  57  57  97 S8        30.38S FOG
CHEYENNE MTN   FOG       55  55 100 SE7       30.36S VSB 1/4
ELLICOTT       CLOUDY   N/A N/A N/A SE8       30.36F
FALCON           N/A     56  56  99 S8        30.42S FOG
FORT CARSON    CLOUDY    59  59  99 CALM      30.36S
LIMON          CLOUDY    57  57 100 S9        30.32F
MONUMENT HILL  CLOUDY    54  52  94 S12       30.41S
CANON CITY     CLOUDY    63  63 100 E3        30.34S
WALSENBURG     CLOUDY    61  61 100 E5        30.36S
TRINIDAD       CLOUDY    61  57  87 CALM      30.35S FOG
$$

COZ042>045-048>051-090-091-261100-
...NORTHEAST COLORADO...

CITY           SKY/WX    TMP DP  RH WIND       PRES   REMARKS
GREELEY ARPT   FAIR      54  52  93 NE6       30.27
AKRON          FAIR      55  52  89 SW10      30.26F
BURLINGTON     FAIR      57  55  93 S7        30.28F
WRAY           FAIR     N/A N/A N/A SW8       30.24F
YUMA           FAIR      52  52 100 SW8       30.24F
STERLING       FAIR      52  52 100 CALM      30.24S FOG
HOLYOKE        NOT AVBL
FORT MORGAN    FAIR      55  52  90 W5        30.26F
$$

COZ086-089-092>099-261100-
...SOUTHEAST COLORADO...

CITY           SKY/WX    TMP DP  RH WIND       PRES   REMARKS
PUEBLO         CLOUDY    63  60  90 E7        30.30F
LA JUNTA       CLOUDY    61  55  81 E9        30.28S
LAMAR          CLOUDY    61  54  77 SE7       30.26F
SPRINGFIELD      N/A     61  60  97 S10       30.29R
$$



USA.gov is the U.S. government's official web portal to all federal, state and local government web resources and services.